NKS146 MDSD-KFLL

Flight info

Callsign NKS146
Flight time N/A
Altitude 36000
Route MALVN2J MALVN RUMFO ZQA OLAHS3
Aircraft A320/M-SDE3FGHIRWY/LB1

Departure

Time N/A
Airport Las Américas International Airport (MDSD)

Arrival

Time 2026-05-03 21:15
Airport Fort Lauderdale Hollywood International Airport (KFLL)
Time Latitude Longitude Altitude Speed Heading
2026-05-03 20:15 23.29748 -75.34128 36087 ft 445 kts 308°
2026-05-03 20:15 23.33929 -75.39110 36081 ft 445 kts 308°
2026-05-03 20:16 23.38083 -75.44082 36071 ft 445 kts 308°
2026-05-03 20:16 23.42264 -75.49081 36069 ft 445 kts 308°
2026-05-03 20:17 23.46402 -75.54034 36067 ft 445 kts 308°
2026-05-03 20:17 23.50578 -75.59026 36065 ft 444 kts 308°
2026-05-03 20:18 23.54742 -75.64017 36067 ft 445 kts 308°
2026-05-03 20:18 23.58888 -75.68995 36067 ft 445 kts 308°
2026-05-03 20:19 23.63054 -75.73990 36070 ft 444 kts 308°
2026-05-03 20:19 23.67182 -75.78956 36067 ft 444 kts 307°
2026-05-03 20:20 23.71338 -75.83961 36071 ft 444 kts 308°
2026-05-03 20:20 23.75502 -75.88966 36071 ft 444 kts 307°
2026-05-03 20:21 23.79624 -75.93939 36073 ft 444 kts 307°
2026-05-03 20:21 23.83774 -75.98963 36072 ft 444 kts 307°
2026-05-03 20:22 23.87905 -76.03953 36065 ft 444 kts 307°
2026-05-03 20:22 23.92059 -76.08970 36066 ft 444 kts 307°
2026-05-03 20:23 23.96178 -76.13962 36064 ft 444 kts 307°
2026-05-03 20:23 24.00318 -76.18983 36064 ft 444 kts 307°
2026-05-03 20:24 24.04427 -76.23975 36064 ft 444 kts 307°
2026-05-03 20:24 24.08567 -76.29005 36069 ft 444 kts 307°
2026-05-03 20:25 24.12682 -76.34005 36065 ft 443 kts 307°
2026-05-03 20:25 24.16812 -76.39040 36070 ft 443 kts 307°
2026-05-03 20:26 24.20936 -76.44074 36067 ft 443 kts 307°
2026-05-03 20:26 24.25038 -76.49082 36070 ft 443 kts 307°
2026-05-03 20:27 24.29158 -76.54114 36068 ft 443 kts 307°
2026-05-03 20:27 24.33275 -76.59142 36069 ft 442 kts 307°
2026-05-03 20:28 24.37365 -76.64147 36071 ft 442 kts 307°
2026-05-03 20:28 24.41474 -76.69176 36067 ft 442 kts 307°
2026-05-03 20:29 24.45576 -76.74211 36067 ft 442 kts 306°
2026-05-03 20:29 24.49650 -76.79227 36066 ft 443 kts 306°
2026-05-03 20:30 24.53754 -76.84274 36068 ft 441 kts 306°
2026-05-03 20:30 24.57855 -76.89307 36067 ft 441 kts 306°
2026-05-03 20:31 24.61927 -76.94318 36066 ft 441 kts 306°
2026-05-03 20:31 24.66018 -76.99363 36068 ft 441 kts 306°
2026-05-03 20:32 24.70080 -77.04379 36065 ft 441 kts 306°
2026-05-03 20:32 24.74156 -77.09414 36067 ft 439 kts 306°
2026-05-03 20:32 24.76190 -77.11928 35865 ft 439 kts 306°
2026-05-03 20:33 24.78220 -77.14438 35616 ft 439 kts 306°
2026-05-03 20:33 24.80233 -77.16930 35373 ft 440 kts 306°
2026-05-03 20:33 24.82275 -77.19460 35115 ft 442 kts 306°
2026-05-03 20:33 24.84321 -77.21998 34871 ft 443 kts 306°
2026-05-03 20:34 24.86374 -77.24546 34621 ft 445 kts 306°
2026-05-03 20:34 24.88433 -77.27105 34375 ft 447 kts 306°
2026-05-03 20:34 24.90502 -77.29677 34129 ft 448 kts 306°
2026-05-03 20:34 24.92554 -77.32223 34009 ft 450 kts 306°
2026-05-03 20:35 24.94639 -77.34811 34048 ft 452 kts 306°
2026-05-03 20:35 24.98816 -77.39999 34044 ft 452 kts 306°
2026-05-03 20:36 25.02687 -77.45397 34047 ft 443 kts 294°
2026-05-03 20:36 25.05144 -77.51536 34032 ft 439 kts 288°
2026-05-03 20:37 25.07473 -77.57782 34054 ft 439 kts 288°
2026-05-03 20:37 25.09793 -77.63997 34057 ft 439 kts 288°
2026-05-03 20:38 25.12131 -77.70254 34060 ft 440 kts 288°
2026-05-03 20:38 25.14454 -77.76472 34057 ft 439 kts 288°
2026-05-03 20:39 25.16785 -77.82728 34056 ft 439 kts 288°
2026-05-03 20:39 25.19097 -77.88941 34061 ft 439 kts 288°
2026-05-03 20:40 25.21418 -77.95208 34067 ft 439 kts 287°
2026-05-03 20:40 25.23724 -78.01433 34066 ft 439 kts 287°
2026-05-03 20:41 25.26029 -78.07666 34064 ft 439 kts 287°
2026-05-03 20:41 25.28330 -78.13882 34060 ft 438 kts 287°
2026-05-03 20:42 25.30648 -78.20131 34055 ft 438 kts 288°
2026-05-03 20:42 25.33095 -78.26324 34056 ft 439 kts 289°
2026-05-03 20:43 25.35600 -78.32444 34058 ft 439 kts 289°
2026-05-03 20:43 25.38099 -78.38618 33354 ft 442 kts 289°
2026-05-03 20:43 25.39351 -78.41751 32261 ft 447 kts 289°
2026-05-03 20:44 25.40602 -78.44887 31508 ft 444 kts 289°
2026-05-03 20:44 25.41837 -78.48013 30636 ft 443 kts 288°
2026-05-03 20:44 25.43052 -78.51159 29642 ft 445 kts 288°
2026-05-03 20:44 25.44258 -78.54335 28595 ft 448 kts 288°
2026-05-03 20:45 25.45460 -78.57519 27512 ft 449 kts 288°
2026-05-03 20:45 25.46656 -78.60679 26380 ft 451 kts 289°
2026-05-03 20:45 25.47870 -78.63853 25708 ft 435 kts 289°
2026-05-03 20:45 25.49021 -78.66825 25532 ft 405 kts 289°
2026-05-03 20:46 25.50100 -78.69600 25404 ft 378 kts 289°
2026-05-03 20:46 25.51106 -78.72200 25170 ft 359 kts 288°
2026-05-03 20:46 25.52059 -78.74683 24617 ft 349 kts 288°
2026-05-03 20:46 25.52996 -78.77142 23945 ft 343 kts 288°
2026-05-03 20:47 25.53918 -78.79568 23208 ft 339 kts 288°
2026-05-03 20:47 25.54825 -78.81965 22451 ft 336 kts 288°
2026-05-03 20:47 25.55716 -78.84313 21711 ft 332 kts 289°
2026-05-03 20:47 25.56610 -78.86660 20930 ft 329 kts 289°
2026-05-03 20:48 25.57492 -78.88981 20151 ft 326 kts 289°
2026-05-03 20:48 25.58375 -78.91304 19483 ft 328 kts 289°
2026-05-03 20:48 25.59248 -78.93617 19081 ft 323 kts 289°
2026-05-03 20:48 25.60110 -78.95910 18633 ft 320 kts 289°
2026-05-03 20:49 25.60971 -78.98168 18134 ft 318 kts 289°
2026-05-03 20:49 25.61823 -79.00398 17666 ft 318 kts 290°
2026-05-03 20:49 25.62689 -79.02659 17223 ft 318 kts 290°
2026-05-03 20:49 25.63551 -79.04914 16817 ft 316 kts 290°
2026-05-03 20:50 25.64398 -79.07155 16408 ft 315 kts 290°
2026-05-03 20:50 25.65238 -79.09393 16001 ft 313 kts 290°
2026-05-03 20:50 25.66070 -79.11619 15609 ft 311 kts 289°
2026-05-03 20:50 25.66886 -79.13805 15211 ft 310 kts 289°
2026-05-03 20:51 25.67713 -79.16019 14815 ft 309 kts 289°
2026-05-03 20:51 25.68540 -79.18224 14424 ft 308 kts 290°
2026-05-03 20:51 25.69351 -79.20387 14038 ft 306 kts 289°
2026-05-03 20:51 25.70166 -79.22565 13647 ft 305 kts 289°
2026-05-03 20:52 25.70978 -79.24739 13262 ft 304 kts 289°
2026-05-03 20:52 25.71788 -79.26906 12880 ft 303 kts 289°
2026-05-03 20:52 25.72593 -79.29064 12497 ft 302 kts 289°
2026-05-03 20:52 25.73396 -79.31222 12119 ft 301 kts 289°
2026-05-03 20:53 25.74179 -79.33343 11741 ft 299 kts 289°
2026-05-03 20:53 25.74965 -79.35483 11361 ft 298 kts 289°
2026-05-03 20:53 25.75747 -79.37615 10982 ft 297 kts 289°
2026-05-03 20:53 25.76526 -79.39736 10668 ft 294 kts 289°
2026-05-03 20:54 25.77034 -79.41122 10467 ft 291 kts 289°
2026-05-03 20:54 25.78782 -79.45919 9786 ft 284 kts 289°
2026-05-03 20:54 25.79523 -79.47951 9536 ft 283 kts 290°
2026-05-03 20:55 25.80015 -79.49298 9366 ft 283 kts 290°
2026-05-03 20:55 25.80994 -79.51970 9034 ft 282 kts 290°
2026-05-03 20:55 25.81492 -79.53329 8860 ft 282 kts 290°
2026-05-03 20:55 25.82466 -79.55994 8529 ft 280 kts 290°
2026-05-03 20:56 25.82954 -79.57330 8362 ft 280 kts 290°
2026-05-03 20:56 25.83683 -79.59328 8112 ft 279 kts 290°
2026-05-03 20:56 25.84414 -79.61317 7864 ft 277 kts 290°
2026-05-03 20:56 25.85156 -79.63300 7612 ft 277 kts 291°
2026-05-03 20:57 25.85913 -79.65269 7360 ft 276 kts 292°
2026-05-03 20:57 25.86724 -79.67208 7110 ft 276 kts 293°
2026-05-03 20:57 25.87558 -79.69122 6860 ft 275 kts 294°
2026-05-03 20:57 25.88395 -79.71026 6609 ft 273 kts 294°
2026-05-03 20:58 25.89219 -79.72897 6360 ft 272 kts 294°
2026-05-03 20:58 25.90045 -79.74786 6112 ft 271 kts 294°
2026-05-03 20:58 25.90864 -79.76681 5997 ft 271 kts 293°
2026-05-03 20:58 25.91673 -79.78572 6007 ft 272 kts 293°
2026-05-03 20:59 25.92485 -79.80476 6009 ft 272 kts 293°
2026-05-03 20:59 25.93295 -79.82381 6006 ft 272 kts 293°
2026-05-03 20:59 25.94107 -79.84288 6010 ft 272 kts 293°
2026-05-03 20:59 25.94909 -79.86172 6005 ft 272 kts 293°
2026-05-03 21:00 25.95719 -79.88076 6006 ft 272 kts 293°
2026-05-03 21:00 25.96256 -79.89340 6010 ft 272 kts 293°
2026-05-03 21:00 25.97337 -79.91888 6010 ft 272 kts 293°
2026-05-03 21:00 25.98143 -79.93792 6009 ft 270 kts 293°
2026-05-03 21:01 25.99048 -79.95555 6008 ft 257 kts 305°
2026-05-03 21:01 26.00196 -79.97009 6007 ft 243 kts 310°
2026-05-03 21:01 26.01308 -79.98368 6006 ft 235 kts 309°
2026-05-03 21:01 26.02401 -79.99713 6009 ft 233 kts 309°
2026-05-03 21:02 26.03473 -80.01041 6010 ft 233 kts 309°
2026-05-03 21:02 26.04558 -80.02385 6008 ft 233 kts 309°
2026-05-03 21:02 26.05643 -80.03730 6010 ft 233 kts 309°
2026-05-03 21:02 26.06727 -80.05073 6011 ft 233 kts 309°
2026-05-03 21:03 26.07810 -80.06413 6008 ft 233 kts 309°
2026-05-03 21:03 26.08896 -80.07756 6010 ft 233 kts 309°
2026-05-03 21:03 26.09981 -80.09101 6010 ft 233 kts 309°
2026-05-03 21:03 26.11063 -80.10441 6011 ft 233 kts 309°
2026-05-03 21:04 26.12137 -80.11769 6008 ft 233 kts 309°
2026-05-03 21:04 26.13225 -80.13111 6007 ft 233 kts 309°
2026-05-03 21:04 26.14186 -80.14556 6010 ft 231 kts 296°
2026-05-03 21:04 26.14790 -80.16204 6007 ft 229 kts 282°
2026-05-03 21:05 26.15024 -80.17925 5788 ft 226 kts 269°
2026-05-03 21:05 26.15025 -80.19671 5536 ft 226 kts 269°
2026-05-03 21:05 26.15029 -80.21418 5284 ft 225 kts 269°
2026-05-03 21:05 26.15036 -80.23157 5032 ft 224 kts 269°
2026-05-03 21:06 26.15043 -80.24895 4783 ft 224 kts 269°
2026-05-03 21:06 26.15057 -80.26635 4531 ft 225 kts 270°
2026-05-03 21:06 26.15088 -80.28376 4283 ft 225 kts 271°
2026-05-03 21:06 26.15115 -80.30103 4032 ft 225 kts 270°
2026-05-03 21:07 26.15137 -80.31845 3786 ft 224 kts 270°
2026-05-03 21:07 26.15152 -80.33582 3536 ft 224 kts 270°
2026-05-03 21:07 26.15164 -80.35313 3283 ft 223 kts 271°
2026-05-03 21:07 26.15173 -80.37040 3057 ft 223 kts 271°
2026-05-03 21:08 26.15173 -80.38755 2998 ft 222 kts 271°
2026-05-03 21:08 26.15173 -80.40497 3006 ft 225 kts 271°
2026-05-03 21:08 26.15094 -80.42237 3004 ft 226 kts 256°
2026-05-03 21:08 26.14326 -80.43741 3008 ft 227 kts 222°
2026-05-03 21:09 26.12933 -80.44529 3012 ft 228 kts 189°
2026-05-03 21:09 26.11350 -80.44637 3016 ft 228 kts 179°
2026-05-03 21:09 26.09782 -80.44562 3012 ft 228 kts 168°
2026-05-03 21:09 26.08349 -80.43857 3005 ft 226 kts 140°
2026-05-03 21:10 26.07391 -80.42506 3006 ft 225 kts 111°
2026-05-03 21:10 26.07090 -80.40819 3011 ft 223 kts 92°
2026-05-03 21:10 26.06995 -80.39095 3008 ft 223 kts 96°
2026-05-03 21:10 26.06782 -80.37392 3009 ft 224 kts 94°
2026-05-03 21:11 26.06696 -80.35671 3008 ft 223 kts 90°
2026-05-03 21:11 26.06679 -80.33948 3011 ft 223 kts 89°
2026-05-03 21:11 26.06675 -80.32215 2839 ft 223 kts 89°
2026-05-03 21:11 26.06665 -80.30502 2573 ft 221 kts 89°
2026-05-03 21:12 26.06656 -80.28840 2296 ft 213 kts 88°
2026-05-03 21:12 26.06650 -80.27209 2057 ft 208 kts 89°
2026-05-03 21:12 26.06641 -80.25617 1758 ft 202 kts 88°
2026-05-03 21:12 26.06631 -80.24096 1461 ft 189 kts 88°
2026-05-03 21:13 26.06624 -80.22702 1239 ft 173 kts 87°
2026-05-03 21:13 26.06617 -80.21426 1041 ft 156 kts 87°
2026-05-03 21:13 26.06613 -80.20248 827 ft 149 kts 88°
2026-05-03 21:13 26.06607 -80.19112 633 ft 145 kts 88°
2026-05-03 21:14 26.06600 -80.17995 442 ft 144 kts 88°
2026-05-03 21:14 26.06593 -80.16897 248 ft 143 kts 88°
2026-05-03 21:14 26.06583 -80.15790 52 ft 143 kts 88°
2026-05-03 21:14 26.06583 -80.14857 19 ft 64 kts 90°
2026-05-03 21:15 26.06604 -80.14684 31 ft 10 kts 33°
2026-05-03 21:15 26.06666 -80.14694 30 ft 11 kts 313°
2026-05-03 21:15 26.06678 -80.14806 22 ft 19 kts 272°
2026-05-03 21:15 26.06719 -80.14916 17 ft 14 kts 343°
2026-05-03 21:16 26.06768 -80.14865 15 ft 10 kts 86°
2026-05-03 21:16 26.06766 -80.14788 15 ft 8 kts 90°
2026-05-03 21:16 26.06766 -80.14721 15 ft 10 kts 89°
2026-05-03 21:16 26.06767 -80.14638 15 ft 12 kts 90°
2026-05-03 21:17 26.06768 -80.14538 15 ft 14 kts 83°
2026-05-03 21:17 26.06772 -80.14461 16 ft 15 kts 90°
2026-05-03 21:17 26.06828 -80.14424 16 ft 9 kts 343°
2026-05-03 21:17 26.06879 -80.14432 16 ft 2 kts
2026-05-03 21:18 26.06888 -80.14432 16 ft 0 kts
2026-05-03 21:18 26.06887 -80.14432 16 ft 2 kts
2026-05-03 21:18 26.06883 -80.14432 16 ft 0 kts